Regional Weather Roundup
Issued by NWS

Current Version | Previous Version | Text Only | Print | Product List | Glossary On
Versions: 1 2 3 4 5 6 7 8 9 10 11 12 13 14 15 16 17 18 19 20 21 22 23 24 25 26 27 28 29 30 31 32 33 34 35 36 37 38 39 40 41 42 43 44 45 46 47 48 49 50
000
ASUS46 KSTO 080909
RWRCA

NORTHERN AND CENTRAL CA REGIONAL WEATHER ROUNDUP
NATIONAL WEATHER SERVICE SACRAMENTO CA
100 AM PST WED DEC 08 2021

NOTE: FAIR INDICATES FEW OR NO CLOUDS BELOW 12,000 FEET WITH NO
SIGNIFICANT WEATHER AND/OR OBSTRUCTIONS TO VISIBILITY.

CAZ001-003-081000-
NORTHWEST AREA

CITY           SKY/WX    TMP DP  RH WIND       PRES   REMARKS
CRESCENT CITY  FOG       51  50  96 CALM      30.08S VSB 1
ARCATA         NOT AVBL
SHELTER COVE   NOT AVBL
UKIAH          CLOUDY    51  48  89 N3        30.04F
$$

CAZ006-505>513-081000-
BAY AREA

CITY           SKY/WX    TMP DP  RH WIND       PRES   REMARKS
SANTA ROSA     CLOUDY    51  50  96 NE5       30.04F FOG
SAN RAFAEL     N/A       49  MM  MM MISG
NAPA           CLOUDY    50  48  93 W6        30.04F FOG
CONCORD        CLOUDY    51  49  92 CALM      30.05S FOG
OAKLAND CITY   N/A       52  MM  MM MISG
OAKLAND        CLOUDY    53  51  93 NW7       30.05S
SAN FRAN CITY  N/A       52  MM  96 MISG
SAN FRAN ARPT  CLOUDY    53  51  93 NW8       30.04S
LIVERMORE      PTCLDY    42  42 100 W5        30.03S
HAYWARD        CLOUDY    50  47  89 CALM      30.04S
REDWOOD CITY   N/A       46  MM  95 MISG
MOFFETT ARPT   MOCLDY    46  45  93 CALM      30.04S
SAN JOSE ARPT  PTCLDY    47  45  93 W3        30.04S
$$
CAZ034-037-514>518-081000-
CENTRAL COAST

CITY           SKY/WX    TMP DP  RH WIND       PRES   REMARKS
WATSONVILLE    CLEAR     48  48 100 CALM      30.04F FOG
SALINAS        PTCLDY    52  50  93 N3        30.05R FOG
MONTEREY       CLEAR     52  49  89 E7        30.04R
PT PIEDRAS BLS NOT AVBL
SAN LUIS OBISP FOG       50  48  93 E5        30.03F VSB 1/4
SANTA MARIA    CLOUDY    54  51  90 SE3       30.02F FOG
HALF MOON BAY  CLOUDY    54  52  94 N10       30.05S
$$
CAZ015-016-081000-
NORTHERN SACRAMENTO VALLEY

CITY           SKY/WX    TMP DP  RH WIND       PRES   REMARKS
REDDING        CLOUDY    50  48  93 SW3       30.04F FOG
RED BLUFF      CLOUDY    50  48  93 SE3       30.06F FOG
OROVILLE       CLOUDY    52  48  86 N3        30.07R
$$
CAZ016>018-081000-
SOUTHERN SACRAMENTO VALLEY

CITY           SKY/WX    TMP DP  RH WIND       PRES   REMARKS
AUBURN         CLEAR     45  45 100 CALM      30.04F
BEALE AFB      PTCLDY    47  39  72 E6        30.04F
LINCOLN        FAIR      48  48 100 CALM      30.04F
MARYSVILLE     CLOUDY    51  46  83 E3        30.05F HAZE
SAC INTL ARPT  CLOUDY    49  47  93 CALM      30.04F FOG
MATHER AIRPORT FOG       46  46 100 N3        30.04S VSB 0
DOWNTOWN SAC   N/A       48  MM  MM MISG
SAC EXEC ARPT  CLOUDY    48  47  96 W3        30.06R FOG
VACAVILLE      FOG       46  46 100 N5        30.06R VSB 1/4
TRAVIS AFB     FOG       42  42 100 CALM      30.04S VSB 7/8
$$
CAZ019>021-081000-
SAN JOAQUIN VALLEY

CITY           SKY/WX    TMP DP  RH WIND       PRES   REMARKS
STOCKTON       FOG       44  43  96 NE3       30.04R VSB 1/4
MODESTO        HAZE      60  43  53 SE9       30.03F VSB 1/4
MERCED         CLOUDY    44  43  96 E5        30.05F FOG
LEMOORE        CLOUDY    43  39  86 S5        30.07R FOG
FRESNO         FOG       40  39  97 SE5       30.07R VSB 1/2
HANFORD        FOG       40  39  97 SE7       30.07F VSB 3/4
PORTERVILLE    CLEAR     38  38 100 S3        30.10S FOG
BAKERSFIELD    CLEAR     45  42  89 CALM      30.08F FOG
$$
CAZ011-012-071-081000-
NORTHERN MOUNTAINS

CITY           SKY/WX    TMP DP  RH WIND       PRES   REMARKS
YREKA          CLOUDY    40  39  97 N5        30.05S FOG
MOUNT SHASTA   MOCLDY    40  37  89 CALM      30.02R
ALTURAS        PTCLDY    26  22  84 NE3       30.01S FOG
$$
CAZ011-012-071-081000-
SIERRA NEVADA MTNS

CITY           SKY/WX    TMP DP  RH WIND       PRES   REMARKS
BLUE CANYON    PTCLDY    45  34  65 CALM      30.07S
TRUCKEE        FOG       30  30 100 NW3       30.08F VSB 1/4
TAHOE VLY ARPT PTCLDY    28  26  92 S3        30.07F
MAMMOTH LAKES  FAIR      27  27 100 NW3       30.12F
$$



USA.gov is the U.S. government's official web portal to all federal, state and local government web resources and services.